Location: Dana
(41.8364°N, 106.7042°W)
Time: 11:08:03
(UTC+00:00)

Injun/Solrad 3 - Pass Details

Date: 11 May 2026
Orbit: 867 x 989 km, 66.8° (Epoch: 11 June)

Event Time Altitude Azimuth Distance (km) Brightness Sun altitude
Rises 08:18:09 0° 330° (NNW) 3,679 11.6 -27.8°
Reaches altitude 10° 08:20:43 10° 333° (NNW) 2,739 10.8 -27.6°
Maximum altitude 08:27:10 75° 58° (ENE) 1,023 8.1 -27.2°
Enters shadow 08:29:37 40° 135° (SE) 1,411 8.6 -27.0°
Drops below altitude 10° 08:33:36 10° 144° (SE) 2,737 - -26.7°
Sets 08:36:10 0° 146° (SSE) 3,677 - -26.5°
